Regional Weather Roundup
Issued by NWS

Home | Current Version | Previous Version | Text Only | Print | Product List | Glossary On
Versions: 1 2 3 4 5 6 7 8 9 10 11 12 13 14 15 16 17 18 19 20 21 22 23 24 25 26 27 28 29 30 31 32 33 34 35 36 37 38 39 40 41 42 43 44 45 46 47 48 49 50
227
ASUS42 KKEY 070910
RWRKEY

FLORIDA REGIONAL WEATHER ROUNDUP FOR THE FLORIDA KEYS
NATIONAL WEATHER SERVICE KEY WEST FLORIDA
400 AM EST WED DEC 07 2016

...SOUTH FLORIDA AND THE KEYS...

CITY           SKY/WX    TMP DP  RH WIND       PRES   REMARKS
FORT MYERS     MOCLDY    72  71  97 N5        29.97S FOG
SW REGIONAL AP FOG       70  69  97 CALM      29.98R VSB 1/2
NAPLES         MOCLDY   N/A N/A N/A CALM      29.98R HAZE
MIAMI          CLOUDY    76  74  93 W3        29.99R
WEST KENDALL   CLOUDY    75  74  96 SW5       29.99R
HOMESTEAD      CLOUDY    73  73 100 CALM      29.98S FOG
MARATHON       CLOUDY    79  76  90 CALM      29.98S
BOCA CHICA NAS MOCLDY    76  74  93 CALM      29.98R
KEY WEST INTL  MOCLDY    78  76  93 CALM      29.99R

...INTERNATIONAL WEATHER...

CITY           SKY/WX    TMP DP  RH WIND       PRES   REMARKS
NASSAU BAHAMAS PTCLDY    75  73  94 CALM      30.00R
CANCUN MEXICO  PTCLDY    75  75 100 SE2       29.96R
COZUMEL MEXICO PTCLDY    75  73  94 CALM      29.94S

ADJACENT COASTAL WATERS...

STATION/POSITION TIME  SKY/WX   TEMP    WIND        PRES    WAVE
                                AIR SEA DIR/SP/G            HT/PER
                 (UTC)          (F)     (DEG/KT/KT) (MB)    (FT/S)
PULASKI SHOAL LI 0900            77      CALM  /  1 1015.3R
SAND KEY         0850            77     190/  3/  7 1015.8R
LONG KEY         0900            78 79  230/  8/  9 1015.6R
MOLASSES REEF    0800            79 79  190/ 11/ 12 1015.2R
FOWEY ROCKS      0900            77 78  270/  8/  8 1015.8R

$$




USA.gov is the U.S. government's official web portal to all federal, state and local government web resources and services.